Location: Bay Shore Mobile Home Park
(38.5762°N, 75.0841°W)
Time: 05:19:57
(UTC+00:00)

Hubble Space Telescope - Pass Details

Date: 27 January 2026
Orbit: 478 x 480 km, 28.5° (Epoch: 8 February)

Event Time Altitude Azimuth Distance (km) Brightness Sun altitude
Rises 23:15:02 0° 240° (WSW) 2,511 5.9 -11.6°
Reaches altitude 10° 23:17:46 10° 220° (SW) 1,635 4.1 -12.1°
Maximum altitude 23:20:18 17° 177° (S) 1,252 2.8 -12.6°
Drops below altitude 10° 23:22:50 10° 135° (SE) 1,636 2.9 -13.1°
Enters shadow 23:23:13 - 131° (SE) 1,742 3.0 -13.2°
